FW7086 Weather Reports


time (UTC)temp
F
wind
direction
speed
knots
gust
knots
rain 1hr
in
rain 24hr
in
rain mn
in
humidity
%
barometer
mb
20210518200709 74 140 1.7 4.3 0.00 0.00 0.00 60 1021.7
20210518200208 74 69 1.7 5.2 0.00 0.00 0.00 61 1022.1
20210518195702 74 130 6.1 8.7 0.00 0.00 0.00 62 1022.1
20210518195159 74 123 3.5 4.3 0.00 0.00 0.00 61 1022.5
20210518194655 74 108 2.6 4.3 0.00 0.00 0.00 61 1022.1
20210518194150 75 139 1.7 1.7 0.00 0.00 0.00 61 1022.1
20210518193646 75 78 2.6 6.1 0.00 0.00 0.00 61 1022.1
20210518193139 74 91 2.6 2.6 0.00 0.00 0.00 60 1022.5
20210518192637 74 108 1.7 1.7 0.00 0.00 0.00 61 1022.5
20210518192129 75 156 8.7 12.2 0.00 0.00 0.00 60 1022.1
20210518191626 75 115 9.6 12.2 0.00 0.00 0.00 60 1022.5
20210518191125 75 64 1.7 2.6 0.00 0.00 0.00 59 1022.1
20210518190622 75 156 6.1 7.8 0.00 0.00 0.00 60 1022.5
20210518190118 74 89 0.9 1.7 0.00 0.00 0.00 60 1022.1
20210518185615 74 89 5.2 7.8 0.00 0.00 0.00 60 1022.5
20210518185112 74 90 3.5 6.1 0.00 0.00 0.00 61 1022.1
20210518184606 74 142 7.0 7.8 0.00 0.00 0.00 59 1022.5
20210518184102 74 78 2.6 5.2 0.00 0.00 0.00 59 1022.1
20210518183601 74 95 0.9 0.9 0.00 0.00 0.00 59 1022.5
20210518183100 74 123 7.8 9.6 0.00 0.00 0.00 57 1022.5
20210518182558 75 150 2.6 5.2 0.00 0.00 0.00 58 1022.5
20210518182051 75 68 1.7 1.7 0.00 0.00 0.00 58 1022.5
20210518181550 75 99 1.7 4.3 0.00 0.00 0.00 58 1022.5
20210518181045 75 151 2.6 2.6 0.00 0.00 0.00 57 1022.5
20210518180541 75 137 2.6 5.2 0.00 0.00 0.00 57 1022.5
20210518180038 75 108 1.7 1.7 0.00 0.00 0.00 58 1022.5
20210518175536 75 90 0.9 1.7 0.00 0.00 0.00 57 1022.8
20210518175030 75 163 2.6 2.6 0.00 0.00 0.00 57 1022.5
20210518174526 75 121 4.3 6.1 0.00 0.00 0.00 57 1022.5
20210518174023 75 83 0.0 0.0 0.00 0.00 0.00 57 1022.8
20210518173521 75 119 0.9 1.7 0.00 0.00 0.00 56 1022.5
20210518173016 75 142 1.7 4.3 0.00 0.00 0.00 58 1022.8
20210518172509 75 113 0.0 0.9 0.00 0.00 0.00 58 1022.5
20210518172003 75 93 0.9 1.7 0.00 0.00 0.00 58 1022.8
20210518171501 75 146 5.2 7.8 0.00 0.00 0.00 57 1022.8
20210518170959 75 139 3.5 5.2 0.00 0.00 0.00 59 1022.8
20210518170455 73 141 4.3 6.1 0.00 0.00 0.00 60 1022.8
20210518165950 74 135 2.6 6.1 0.00 0.00 0.00 59 1022.8
20210518165449 74 90 2.6 2.6 0.00 0.00 0.00 60 1023.1
20210518164943 74 31 1.7 2.6 0.00 0.00 0.00 60 1023.1
20210518164439 74 126 1.7 1.7 0.00 0.00 0.00 60 1022.8
20210518163939 74 141 2.6 4.3 0.00 0.00 0.00 60 1023.1
20210518163434 74 85 0.0 0.9 0.00 0.00 0.00 61 1022.8
20210518162929 74 98 2.6 2.6 0.00 0.00 0.00 60 1023.1
20210518162428 73 88 1.7 1.7 0.00 0.00 0.00 61 1023.1
20210518161928 73 81 0.9 0.9 0.00 0.00 0.00 61 1023.1
20210518161427 73 145 3.5 5.2 0.00 0.00 0.00 61 1023.1
20210518160923 73 140 1.7 2.6 0.00 0.00 0.00 61 1023.1
20210518160418 73 105 1.7 2.6 0.00 0.00 0.00 62 1022.8
20210518155911 73 58 1.7 1.7 0.00 0.00 0.00 63 1022.8
20210518155411 72 113 0.9 0.9 0.00 0.00 0.00 63 1023.1
20210518154905 72 91 4.3 6.1 0.00 0.00 0.00 64 1022.8
20210518154402 72 131 0.9 1.7 0.00 0.00 0.00 64 1023.1
20210518153857 72 116 0.9 1.7 0.00 0.00 0.00 64 1023.1
20210518153354 71 140 2.6 4.3 0.00 0.00 0.00 65 1023.1
20210518152850 71 142 1.7 2.6 0.00 0.00 0.00 67 1023.1
20210518152348 70 81 0.0 0.0 0.00 0.00 0.00 69 1023.1
20210518151843 69 186 2.6 2.6 0.00 0.00 0.00 70 1023.1
20210518151339 69 140 1.7 4.3 0.00 0.00 0.00 71 1023.1
20210518150833 69 140 2.6 4.3 0.00 0.00 0.00 70 1023.1
20210518150328 69 113 3.5 5.2 0.00 0.00 0.00 71 1023.5
20210518145823 68 97 3.5 5.2 0.00 0.00 0.00 71 1023.1
20210518145322 68 68 1.7 2.6 0.00 0.00 0.00 72 1023.5
20210518144818 68 39 1.7 1.7 0.00 0.00 0.00 72 1023.5
20210518144315 68 45 2.6 4.3 0.00 0.00 0.00 73 1023.5
20210518143808 67 67 1.7 1.7 0.00 0.00 0.00 74 1023.5
20210518143306 66 55 0.9 0.9 0.00 0.00 0.00 75 1023.5
20210518142806 66 146 2.6 4.3 0.00 0.00 0.00 76 1023.8
20210518142300 65 91 0.9 0.9 0.00 0.00 0.00 77 1023.5
20210518141756 65 73 2.6 4.3 0.00 0.00 0.00 77 1023.1
20210518141253 65 80 0.0 0.0 0.00 0.00 0.00 78 1023.5
20210518140747 64 68 2.6 2.6 0.00 0.00 0.00 78 1023.5
20210518140241 65 64 1.7 1.7 0.00 0.00 0.00 78 1023.5
20210518135740 64 84 3.5 4.3 0.00 0.00 0.00 78 1023.5
20210518135237 64 64 0.0 0.9 0.00 0.00 0.00 79 1023.5
20210518134734 64 71 1.7 2.6 0.00 0.00 0.00 79 1023.1
20210518134224 64 43 2.6 2.6 0.00 0.00 0.00 79 1023.1
20210518133716 64 58 1.7 1.7 0.00 0.00 0.00 79 1023.5
20210518133215 64 29 1.7 1.7 0.00 0.00 0.00 79 1023.1
20210518132711 64 63 1.7 1.7 0.00 0.00 0.00 80 1023.1
20210518132207 64 54 0.9 1.7 0.00 0.00 0.00 80 1023.1
20210518131707 64 53 0.9 2.6 0.00 0.00 0.00 80 1023.5
20210518131205 63 42 2.6 4.3 0.00 0.00 0.00 80 1023.5
20210518130652 63 109 0.9 0.9 0.00 0.00 0.00 81 1023.5
20210518130151 62 71 0.0 0.0 0.00 0.00 0.00 82 1023.5
20210518125646 62 78 0.9 2.6 0.00 0.00 0.00 82 1023.5
20210518125146 62 137 0.9 0.9 0.00 0.00 0.00 82 1023.5
20210518124643 62 72 0.9 1.7 0.00 0.00 0.00 83 1023.5
20210518124139 62 81 1.7 1.7 0.00 0.00 0.00 83 1023.1
20210518123631 62 104 0.9 0.9 0.00 0.00 0.00 83 1023.1
20210518123128 62 72 3.5 5.2 0.00 0.00 0.00 83 1023.5
20210518122627 62 97 1.7 1.7 0.00 0.00 0.00 83 1023.5
20210518122127 62 65 0.0 0.0 0.00 0.00 0.00 83 1023.5
20210518121627 62 75 0.0 0.0 0.00 0.00 0.00 84 1023.5
20210518121123 61 55 0.9 0.9 0.00 0.00 0.00 84 1023.5
20210518120618 61 56 1.7 2.6 0.00 0.00 0.00 84 1023.1
20210518120112 61 52 0.9 0.9 0.00 0.00 0.00 85 1023.1
20210518115605 61 62 1.7 1.7 0.00 0.00 0.00 85 1023.1
20210518115101 60 85 1.7 2.6 0.00 0.00 0.00 86 1023.1
20210518114601 60 63 0.9 0.9 0.00 0.00 0.00 86 1023.1
20210518114058 60 52 1.7 1.7 0.00 0.00 0.00 86 1023.1
20210518113551 60 81 1.7 1.7 0.00 0.00 0.00 87 1023.1
20210518113047 60 48 0.9 1.7 0.00 0.00 0.00 87 1023.1
20210518112546 60 34 2.6 2.6 0.00 0.00 0.00 87 1023.1
20210518112045 60 55 4.3 5.2 0.00 0.00 0.00 87 1023.1
20210518111541 60 81 0.9 1.7 0.00 0.00 0.00 87 1023.1
20210518111035 60 81 0.9 0.9 0.00 0.00 0.00 87 1023.1
20210518110532 60 70 3.5 7.0 0.00 0.00 0.00 87 1023.1
20210518110026 60 49 1.7 1.7 0.00 0.00 0.00 87 1023.1
20210518105526 60 85 0.9 0.9 0.00 0.00 0.00 87 1022.8
20210518105022 60 61 0.9 1.7 0.00 0.00 0.00 88 1022.8
20210518104517 59 82 1.7 1.7 0.00 0.00 0.00 88 1022.8
20210518104011 59 85 0.9 0.9 0.00 0.00 0.00 88 1022.8
20210518103509 59 68 0.0 0.0 0.00 0.00 0.00 89 1023.1
20210518103003 59 41 2.6 2.6 0.00 0.00 0.00 89 1023.1
20210518102456 59 69 0.0 0.9 0.00 0.00 0.00 89 1022.5
20210518101952 59 70 0.0 0.0 0.00 0.00 0.00 89 1022.8
20210518101450 59 53 0.9 1.7 0.00 0.00 0.00 88 1022.5
20210518100947 59 71 0.0 0.0 0.00 0.00 0.00 88 1022.5
20210518100442 59 71 0.0 0.0 0.00 0.00 0.00 88 1022.8
20210518095937 59 61 0.0 0.9 0.00 0.00 0.00 88 1022.8
20210518095432 59 60 0.9 0.9 0.00 0.00 0.00 88 1022.8
20210518094932 59 66 0.9 1.7 0.00 0.00 0.00 88 1022.8
20210518094427 59 57 0.9 1.7 0.00 0.00 0.00 88 1022.8
20210518093923 59 76 1.7 1.7 0.00 0.00 0.00 88 1022.8
20210518093417 59 71 0.0 0.0 0.00 0.00 0.00 88 1022.8
20210518092915 59 83 0.0 0.0 0.00 0.00 0.00 88 1022.8
20210518092411 59 62 0.0 0.0 0.00 0.00 0.00 88 1022.8
20210518091909 59 51 0.0 0.9 0.00 0.00 0.00 88 1022.5
20210518091404 59 68 1.7 1.7 0.00 0.00 0.00 89 1022.8
20210518090901 59 69 0.0 0.0 0.00 0.00 0.00 89 1022.8
20210518090356 59 57 0.9 0.9 0.00 0.00 0.00 89 1022.8
20210518085852 59 72 0.0 0.0 0.00 0.00 0.00 89 1022.8
20210518085346 59 73 0.9 1.7 0.00 0.00 0.00 89 1022.8
20210518084843 58 63 0.0 0.0 0.00 0.00 0.00 89 1022.8
20210518084339 58 69 0.0 0.0 0.00 0.00 0.00 89 1022.8
20210518083838 58 79 0.0 0.0 0.00 0.00 0.00 89 1022.8
20210518083337 58 68 0.0 0.0 0.00 0.00 0.00 89 1022.8
20210518082832 58 57 0.9 0.9 0.00 0.00 0.00 89 1022.5
20210518082325 58 77 0.9 1.7 0.00 0.00 0.00 89 1022.8
20210518081818 58 74 0.9 0.9 0.00 0.00 0.00 89 1022.8
20210518081317 58 56 0.9 1.7 0.00 0.00 0.00 88 1022.8
20210518080815 58 66 0.0 0.9 0.00 0.00 0.00 88 1022.5
20210518080309 58 70 0.0 0.0 0.00 0.00 0.00 88 1022.5
20210518075804 59 56 0.9 0.9 0.00 0.00 0.00 88 1022.5
20210518075305 59 72 1.7 1.7 0.00 0.00 0.00 88 1022.8
20210518074759 59 68 0.9 0.9 0.00 0.00 0.00 88 1022.8
20210518074254 59 76 0.0 0.0 0.00 0.00 0.00 88 1022.8
20210518073750 59 70 0.9 0.9 0.00 0.00 0.00 88 1022.5
20210518073247 59 66 0.9 0.9 0.00 0.00 0.00 88 1022.5
20210518072741 59 72 0.9 0.9 0.00 0.00 0.00 88 1022.5
20210518072239 59 67 0.0 0.0 0.00 0.00 0.00 88 1022.5
20210518071733 59 76 0.9 0.9 0.00 0.00 0.00 87 1022.5
20210518071227 59 58 1.7 2.6 0.00 0.00 0.00 87 1022.1
20210518070723 59 69 0.0 0.0 0.00 0.00 0.00 87 1022.5
20210518070220 59 63 1.7 1.7 0.00 0.00 0.00 87 1022.5
20210518065715 59 63 0.9 0.9 0.00 0.00 0.00 87 1022.5
20210518065212 59 83 0.0 0.9 0.00 0.00 0.00 87 1022.5
20210518064712 59 70 0.0 0.0 0.00 0.00 0.00 86 1022.5
20210518064207 60 66 1.7 1.7 0.00 0.00 0.00 86 1022.8
20210518063702 60 69 0.0 0.9 0.00 0.00 0.00 86 1022.8
20210518063202 60 77 0.0 0.9 0.00 0.00 0.00 86 1022.5
20210518062653 60 74 0.0 0.9 0.00 0.00 0.00 85 1022.8
20210518062150 60 64 0.9 0.9 0.00 0.00 0.00 85 1022.8
20210518061649 60 74 0.0 0.0 0.00 0.00 0.00 85 1022.5
20210518061150 60 71 0.0 1.7 0.00 0.00 0.00 85 1022.5
20210518060647 60 80 0.0 0.0 0.00 0.00 0.00 85 1022.8
20210518060145 60 57 0.0 0.9 0.00 0.00 0.00 85 1022.8
20210518055642 60 89 0.9 1.7 0.00 0.00 0.00 85 1022.8
20210518055127 60 58 0.9 0.9 0.00 0.00 0.00 85 1022.5
20210518054623 60 91 0.9 1.7 0.00 0.00 0.00 85 1022.5
20210518054121 60 75 0.9 0.9 0.00 0.00 0.00 85 1022.5
20210518053614 60 78 0.0 0.0 0.00 0.00 0.00 85 1022.5
20210518053107 60 64 1.7 4.3 0.00 0.00 0.00 85 1022.8
20210518052601 60 70 0.0 0.0 0.00 0.00 0.00 85 1022.5
20210518052100 60 79 0.9 0.9 0.00 0.00 0.00 84 1022.5
20210518051554 60 93 0.9 0.9 0.00 0.00 0.00 84 1022.5
20210518051051 60 75 0.9 0.9 0.00 0.00 0.00 84 1022.5
20210518050549 60 82 1.7 2.6 0.00 0.00 0.00 84 1022.5
20210518050042 60 69 1.7 4.3 0.00 0.00 0.00 83 1022.5
20210518045541 60 54 4.3 4.3 0.00 0.00 0.00 83 1022.5
20210518045032 60 89 0.9 0.9 0.00 0.00 0.00 83 1022.5
20210518044531 60 63 2.6 2.6 0.00 0.00 0.00 83 1022.8
20210518044029 60 62 0.9 1.7 0.00 0.00 0.00 83 1022.8
20210518043523 60 48 0.9 1.7 0.00 0.00 0.00 82 1022.5
20210518043021 60 71 0.0 0.9 0.00 0.00 0.00 82 1022.5
20210518042520 60 68 0.9 0.9 0.00 0.00 0.00 82 1022.8
20210518042020 60 76 0.0 0.9 0.00 0.00 0.00 81 1022.8
20210518041515 60 63 0.9 0.9 0.00 0.00 0.00 81 1022.8
20210518041010 60 59 0.0 0.9 0.00 0.00 0.00 81 1022.8
20210518040509 60 30 2.6 2.6 0.00 0.00 0.00 81 1022.8
20210518040005 60 50 3.5 5.2 0.00 0.00 0.00 81 1023.1
20210518035501 60 78 0.0 0.0 0.00 0.00 0.00 81 1023.1
20210518034958 60 58 0.9 0.9 0.00 0.00 0.00 80 1022.8
20210518034458 60 53 0.9 1.7 0.00 0.00 0.00 81 1022.8
20210518033952 60 73 0.0 0.9 0.00 0.00 0.00 80 1023.1
20210518033448 60 76 0.0 0.0 0.00 0.00 0.00 79 1023.1
20210518032946 60 81 0.9 0.9 0.00 0.00 0.00 79 1023.1
20210518032442 60 76 1.7 2.6 0.00 0.00 0.00 79 1023.1
20210518031938 60 79 0.9 0.9 0.00 0.00 0.00 79 1023.1
20210518031437 60 96 0.9 1.7 0.00 0.00 0.00 79 1023.1
20210518030929 60 61 0.0 0.9 0.00 0.00 0.00 79 1022.8
20210518030425 60 68 1.7 1.7 0.00 0.00 0.00 79 1023.1
20210518025922 60 79 0.9 0.9 0.00 0.00 0.00 79 1023.1
20210518025415 60 55 0.9 0.9 0.00 0.00 0.00 79 1023.1
20210518024915 60 77 0.0 0.0 0.00 0.00 0.00 78 1023.1
20210518024414 60 66 0.9 0.9 0.00 0.00 0.00 78 1022.8
20210518023909 60 73 0.0 0.0 0.00 0.00 0.00 77 1022.8
20210518023403 60 35 0.9 0.9 0.00 0.00 0.00 77 1022.8
20210518022901 60 73 1.7 1.7 0.00 0.00 0.00 77 1022.8
20210518022400 60 83 2.6 2.6 0.00 0.00 0.00 77 1022.8
20210518021855 61 61 0.9 0.9 0.00 0.00 0.00 76 1022.8
20210518021354 61 60 3.5 4.3 0.00 0.00 0.00 76 1022.8
20210518020851 61 51 0.9 1.7 0.00 0.00 0.00 75 1022.8
20210518020347 62 49 2.6 4.3 0.00 0.00 0.00 75 1022.5
20210518015844 62 44 1.7 1.7 0.00 0.00 0.00 74 1022.5
20210518015339 62 61 3.5 5.2 0.00 0.00 0.00 74 1022.5
20210518014837 62 59 1.7 1.7 0.00 0.00 0.00 74 1022.5
20210518014328 62 52 1.7 4.3 0.00 0.00 0.00 74 1022.1
20210518013823 62 59 0.0 0.9 0.00 0.00 0.00 73 1022.1
20210518013319 62 88 1.7 1.7 0.00 0.00 0.00 73 1022.1
20210518012815 62 86 0.0 0.9 0.00 0.00 0.00 73 1022.1
20210518012311 63 60 0.9 0.9 0.00 0.00 0.00 73 1022.1
20210518011807 63 56 1.7 2.6 0.00 0.00 0.00 72 1021.7
20210518011259 63 54 3.5 4.3 0.00 0.00 0.00 72 1021.7
20210518010749 64 68 2.6 2.6 0.00 0.00 0.00 71 1022.1
20210518010246 64 59 1.7 2.6 0.00 0.00 0.00 71 1021.7
20210518005746 64 71 0.9 1.7 0.00 0.00 0.00 71 1021.7
20210518005241 64 47 0.0 1.7 0.00 0.00 0.00 71 1021.7
20210518004741 65 89 1.7 1.7 0.00 0.00 0.00 70 1021.7
20210518004239 65 89 0.9 0.9 0.00 0.00 0.00 70 1021.7
20210518003735 66 60 1.7 1.7 0.00 0.00 0.00 69 1021.7
20210518003234 66 48 4.3 6.1 0.00 0.00 0.00 69 1021.7
20210518002731 66 80 0.0 0.0 0.00 0.00 0.00 69 1021.7
20210518002225 67 68 3.5 6.1 0.00 0.00 0.00 68 1021.7
20210518001718 67 74 0.9 1.7 0.00 0.00 0.00 67 1022.1
20210518001216 67 54 0.9 1.7 0.00 0.00 0.00 67 1021.7
20210518000712 68 97 2.6 2.6 0.00 0.00 0.00 66 1021.7
20210518000211 68 81 0.9 1.7 0.00 0.00 0.00 66 1021.7
20210517235708 68 139 1.7 2.6 0.00 0.00 0.00 66 1021.7
20210517235204 68 103 0.9 1.7 0.00 0.00 0.00 66 1021.7
20210517234701 68 60 2.6 2.6 0.00 0.00 0.00 66 1021.7
20210517234155 67 77 0.0 0.0 0.00 0.00 0.00 67 1021.7
20210517233654 67 65 1.7 2.6 0.00 0.00 0.00 67 1021.3
20210517233150 68 55 2.6 4.3 0.00 0.00 0.00 67 1021.7
20210517232647 68 83 2.6 5.2 0.00 0.00 0.00 66 1022.1
20210517232143 68 78 0.0 0.0 0.00 0.00 0.00 67 1021.7
20210517231640 68 59 1.7 2.6 0.00 0.00 0.00 67 1022.1
20210517231137 68 63 2.6 2.6 0.00 0.00 0.00 66 1021.7
20210517230632 68 77 0.0 0.0 0.00 0.00 0.00 67 1022.1
20210517230131 67 122 0.9 1.7 0.00 0.00 0.00 67 1022.1
20210517225628 67 74 0.9 1.7 0.00 0.00 0.00 67 1022.1
20210517225125 68 69 1.7 1.7 0.00 0.00 0.00 67 1022.1
20210517224618 68 77 0.0 0.0 0.00 0.00 0.00 66 1022.1
20210517224113 68 85 0.0 0.0 0.00 0.00 0.00 66 1022.1
20210517223612 68 58 1.7 2.6 0.00 0.00 0.00 66 1022.1
20210517223107 68 60 0.9 1.7 0.00 0.00 0.00 66 1021.7
20210517222558 68 34 2.6 5.2 0.00 0.00 0.00 65 1022.1
20210517222052 68 47 2.6 2.6 0.00 0.00 0.00 65 1022.1
20210517221550 69 71 0.9 0.9 0.00 0.00 0.00 64 1021.7
20210517221044 69 76 3.5 4.3 0.00 0.00 0.00 63 1021.7
20210517220543 69 87 1.7 1.7 0.00 0.00 0.00 64 1021.7
20210517220042 69 104 0.9 1.7 0.00 0.00 0.00 63 1021.7
20210517215537 69 132 2.6 4.3 0.00 0.00 0.00 62 1022.1
20210517215032 69 80 2.6 5.2 0.00 0.00 0.00 63 1022.1
20210517214528 70 65 3.5 5.2 0.00 0.00 0.00 63 1022.1
20210517214019 69 69 1.7 4.3 0.00 0.00 0.00 63 1021.7
20210517213517 69 89 4.3 7.0 0.00 0.00 0.00 63 1021.3
20210517213015 69 72 1.7 1.7 0.00 0.00 0.00 63 1021.7
20210517212513 69 68 2.6 4.3 0.00 0.00 0.00 62 1021.7
20210517212008 69 74 1.7 2.6 0.00 0.00 0.00 63 1021.7
20210517211502 69 75 1.7 2.6 0.00 0.00 0.00 62 1021.7
20210517210959 69 79 1.7 2.6 0.00 0.00 0.00 63 1021.7
20210517210458 69 66 0.9 1.7 0.00 0.00 0.00 63 1021.7
20210517205953 69 89 1.7 2.6 0.00 0.00 0.00 62 1021.7
20210517205444 70 137 2.6 4.3 0.00 0.00 0.00 61 1021.7
20210517204937 69 98 0.9 1.7 0.00 0.00 0.00 61 1021.7
20210517204437 69 70 0.0 0.0 0.00 0.00 0.00 63 1021.7
20210517203936 69 113 0.9 0.9 0.00 0.00 0.00 62 1021.7
20210517203435 69 73 0.9 0.9 0.00 0.00 0.00 62 1021.7
20210517202931 69 76 2.6 2.6 0.00 0.00 0.00 61 1021.7
20210517202426 70 108 0.9 0.9 0.00 0.00 0.00 61 1022.1
20210517201920 69 89 0.0 0.9 0.00 0.00 0.00 62 1022.1
20210517201413 69 54 1.7 1.7 0.00 0.00 0.00 62 1022.1